Simultaneous Nadir Overpasses (SNOs) Predictions

Prediction of SNOs between LANDSAT-8 and METOP-B Satellite Orbit:

Table of predicted SNOs for the next 14.0 days since TLE Epoch: 11/4/2017
Index Date (LANDSAT-8) Time (LANDSAT-8) Lat,Lon (LANDSAT-8) SZA (LANDSAT-8 ) Date (METOP-B) Time (METOP-B) Lat,Lon (METOP-B) SZA (METOP-B ) Distance(km) Time Diff (sec)
1 11/06/2017 19:16:15 81.11, -69.39 99.67 11/06/2017 19:15:30 81.11, -69.52 99.64 2.11 45
2 11/06/2017 20:05:41 -81.13, 98.54 80.28 11/06/2017 20:06:09 -81.13, 98.39 80.28 2.55 28
3 11/09/2017 14:50:29 81.12, -2.73 100.51 11/09/2017 14:49:51 81.13, -2.62 100.50 1.83 38
4 11/09/2017 15:39:55 -81.14, 165.23 79.44 11/09/2017 15:40:30 -81.14, 165.30 79.42 1.17 35
5 11/12/2017 10:24:44 81.11, 63.52 101.24 11/12/2017 10:24:14 81.11, 63.49 101.23 0.75 30
6 11/12/2017 11:14:10 -81.13,-128.49 78.70 11/12/2017 11:14:53 -81.14,-128.57 78.69 1.40 43
7 11/15/2017 05:58:57 81.12, 130.10 101.98 11/15/2017 05:58:35 81.12, 129.96 101.96 2.40 22
8 11/15/2017 06:48:23 -81.14, -61.90 77.96 11/15/2017 06:49:13 -81.15, -61.71 77.91 3.29 50
9 11/18/2017 01:33:11 81.12,-163.38 102.67 11/18/2017 01:32:56 81.13,-163.22 102.69 2.72 15




NCC Satellite Simultaneous Nadir Overpasses (SNOs) Prediction Service
